Time,TemperatureF,DewpointF,PressureIn,WindDirection,WindDirectionDegrees,WindSpeedMPH,WindSpeedGustMPH,Humidity,HourlyPrecipIn,Conditions,Clouds,dailyrainin,SoftwareType,DateUTC
2013-02-18 00:14:00,47.1,32.2,30.08,SSE,152,1.1,12.6,56,0.00,,,0.00,VWS V14.01,2013-02-18 06:14:00,
2013-02-18 00:29:00,46.9,32.0,30.09,WSW,238,1.1,10.3,56,0.00,,,0.00,VWS V14.01,2013-02-18 06:29:00,
2013-02-18 00:44:00,46.6,32.2,30.09,South,172,3.4,11.5,57,0.00,,,0.00,VWS V14.01,2013-02-18 06:44:00,
2013-02-18 00:59:00,46.6,32.6,30.08,ESE,117,1.1,9.2,58,0.00,,,0.00,VWS V14.01,2013-02-18 06:59:00,
2013-02-18 01:14:00,46.5,33.0,30.09,ESE,111,6.9,10.3,59,0.00,,,0.00,VWS V14.01,2013-02-18 07:14:00,
2013-02-18 01:29:00,46.7,33.6,30.08,ESE,113,1.1,9.2,60,0.00,,,0.00,VWS V14.01,2013-02-18 07:29:00,
2013-02-18 01:44:00,46.9,33.8,30.08,SW,217,2.3,11.5,60,0.00,,,0.00,VWS V14.01,2013-02-18 07:44:00,
2013-02-18 01:59:00,46.8,34.1,30.09,SSW,193,1.1,10.3,61,0.00,,,0.00,VWS V14.01,2013-02-18 07:59:00,
2013-02-18 02:14:00,46.4,34.5,30.08,ESE,119,3.4,6.9,63,0.00,,,0.00,VWS V14.01,2013-02-18 08:14:00,
2013-02-18 02:29:00,46.2,34.7,30.09,South,178,1.1,5.8,64,0.00,,,0.00,VWS V14.01,2013-02-18 08:29:00,
2013-02-18 02:44:00,46.3,35.6,30.08,South,170,4.6,6.9,66,0.00,,,0.00,VWS V14.01,2013-02-18 08:44:00,
2013-02-18 02:59:00,46.7,36.7,30.08,SSW,208,1.1,8.1,68,0.00,,,0.00,VWS V14.01,2013-02-18 08:59:00,
2013-02-18 03:14:00,48.0,38.3,30.08,SSW,193,6.9,17.2,69,0.00,,,0.00,VWS V14.01,2013-02-18 09:14:00,
2013-02-18 03:29:00,48.2,38.9,30.08,South,172,2.3,12.6,70,0.00,,,0.00,VWS V14.01,2013-02-18 09:29:00,
2013-02-18 03:44:00,48.4,39.1,30.08,SE,141,5.8,14.9,70,0.00,,,0.00,VWS V14.01,2013-02-18 09:44:00,
2013-02-18 03:59:00,48.1,38.8,30.08,SW,214,4.6,12.6,70,0.00,,,0.00,VWS V14.01,2013-02-18 09:59:00,
2013-02-18 04:14:00,47.7,38.4,30.08,South,183,11.5,14.9,70,0.00,,,0.00,VWS V14.01,2013-02-18 10:14:00,
2013-02-18 04:29:00,47.5,38.2,30.09,WSW,250,2.3,14.9,70,0.00,,,0.00,VWS V14.01,2013-02-18 10:29:00,
2013-02-18 04:44:00,47.3,38.0,30.09,SSE,163,8.1,12.6,70,0.00,,,0.00,VWS V14.01,2013-02-18 10:44:00,
2013-02-18 04:59:00,47.2,37.9,30.09,SE,131,4.6,9.2,70,0.00,,,0.00,VWS V14.01,2013-02-18 10:59:00,
2013-02-18 05:14:00,47.3,37.7,30.09,WSW,240,1.1,13.8,69,0.00,,,0.00,VWS V14.01,2013-02-18 11:14:00,
2013-02-18 05:29:00,47.3,37.7,30.09,SSW,201,6.9,12.6,69,0.00,,,0.00,VWS V14.01,2013-02-18 11:29:00,
2013-02-18 05:44:00,47.5,37.8,30.09,SSW,210,4.6,12.6,69,0.00,,,0.00,VWS V14.01,2013-02-18 11:44:00,
2013-02-18 05:59:00,47.6,38.0,30.09,South,177,2.3,16.1,69,0.00,,,0.00,VWS V14.01,2013-02-18 11:59:00,
2013-02-18 06:14:00,47.5,37.8,30.08,SE,126,4.6,18.4,69,0.00,,,0.00,VWS V14.01,2013-02-18 12:14:00,
2013-02-18 06:29:00,47.3,38.0,30.08,WSW,256,6.9,11.5,70,0.00,,,0.00,VWS V14.01,2013-02-18 12:29:00,
2013-02-18 06:44:00,47.3,38.4,30.08,South,171,6.9,12.6,71,0.00,,,0.00,VWS V14.01,2013-02-18 12:44:00,
2013-02-18 06:59:00,47.1,38.2,30.08,SSE,155,0.0,10.3,71,0.00,,,0.00,VWS V14.01,2013-02-18 12:59:00,
2013-02-18 07:14:00,46.0,37.5,30.08,SSW,203,4.6,9.2,72,0.00,,,0.00,VWS V14.01,2013-02-18 13:14:00,
2013-02-18 07:29:00,45.5,37.4,30.09,SSE,167,2.3,11.5,73,0.00,,,0.00,VWS V14.01,2013-02-18 13:29:00,
2013-02-18 07:44:00,46.0,37.8,30.09,ESE,109,4.6,13.8,73,0.00,,,0.00,VWS V14.01,2013-02-18 13:44:00,
2013-02-18 07:59:00,46.5,38.0,30.09,SSE,151,2.3,19.5,72,0.00,,,0.00,VWS V14.01,2013-02-18 13:59:00,
2013-02-18 08:14:00,46.8,38.3,30.08,SW,226,14.9,16.1,72,0.00,,,0.00,VWS V14.01,2013-02-18 14:14:00,
2013-02-18 08:29:00,47.2,38.3,30.08,SSE,161,4.6,14.9,71,0.00,,,0.00,VWS V14.01,2013-02-18 14:29:00,
2013-02-18 08:44:00,49.2,39.1,30.08,SW,214,2.3,12.6,68,0.00,,,0.00,VWS V14.01,2013-02-18 14:44:00,
2013-02-18 08:59:00,50.9,40.0,30.08,South,187,8.1,13.8,66,0.00,,,0.00,VWS V14.01,2013-02-18 14:59:00,
2013-02-18 09:14:00,52.9,40.7,30.06,SW,235,8.1,13.8,63,0.00,,,0.00,VWS V14.01,2013-02-18 15:14:00,
2013-02-18 09:29:00,54.0,40.9,30.06,South,177,8.1,19.5,61,0.00,,,0.00,VWS V14.01,2013-02-18 15:29:00,
2013-02-18 09:44:00,54.1,41.4,30.05,South,171,4.6,16.1,62,0.00,,,0.00,VWS V14.01,2013-02-18 15:44:00,
2013-02-18 09:59:00,54.7,42.0,30.05,ESE,106,3.4,17.2,62,0.00,,,0.00,VWS V14.01,2013-02-18 15:59:00,
2013-02-18 10:14:00,55.9,42.7,30.05,ESE,112,8.1,17.2,61,0.00,,,0.00,VWS V14.01,2013-02-18 16:14:00,
2013-02-18 10:29:00,55.8,43.0,30.04,SSE,153,10.3,17.2,62,0.00,,,0.00,VWS V14.01,2013-02-18 16:29:00,
2013-02-18 10:44:00,55.3,42.9,30.03,SE,136,5.8,17.2,63,0.00,,,0.00,VWS V14.01,2013-02-18 16:44:00,
2013-02-18 10:59:00,55.3,43.3,30.03,South,169,5.8,18.4,64,0.00,,,0.00,VWS V14.01,2013-02-18 16:59:00,
2013-02-18 11:14:00,55.0,44.3,30.02,ESE,118,8.1,13.8,67,0.00,,,0.00,VWS V14.01,2013-02-18 17:14:00,
2013-02-18 11:29:00,55.5,44.3,30.01,SSE,155,10.3,20.7,66,0.00,,,0.00,VWS V14.01,2013-02-18 17:29:00,
2013-02-18 11:44:00,56.4,44.8,30.00,SSE,153,1.1,14.9,65,0.00,,,0.00,VWS V14.01,2013-02-18 17:44:00,
2013-02-18 11:59:00,57.4,45.3,30.00,South,190,12.6,21.9,64,0.00,,,0.00,VWS V14.01,2013-02-18 17:59:00,
2013-02-18 12:14:00,57.7,45.2,29.98,South,180,12.6,17.2,63,0.00,,,0.00,VWS V14.01,2013-02-18 18:14:00,
2013-02-18 12:29:00,57.4,44.9,29.96,SE,128,4.6,20.7,63,0.00,,,0.00,VWS V14.01,2013-02-18 18:29:00,
2013-02-18 12:44:00,57.8,45.3,29.94,SSE,153,16.1,18.4,63,0.00,,,0.00,VWS V14.01,2013-02-18 18:44:00,
2013-02-18 12:59:00,56.1,46.5,29.94,SSW,205,6.9,20.7,70,0.00,,,0.00,VWS V14.01,2013-02-18 18:59:00,
2013-02-18 13:14:00,54.2,47.2,29.93,SSW,208,14.9,18.4,77,0.02,,,0.02,VWS V14.01,2013-02-18 19:14:00,
2013-02-18 13:29:00,53.5,47.5,29.92,SE,143,3.4,14.9,80,0.02,,,0.02,VWS V14.01,2013-02-18 19:29:00,
2013-02-18 13:44:00,54.0,47.6,29.91,SE,125,10.3,13.8,79,0.02,,,0.02,VWS V14.01,2013-02-18 19:44:00,
2013-02-18 13:59:00,54.8,47.7,29.89,SE,134,4.6,16.1,77,0.03,,,0.03,VWS V14.01,2013-02-18 19:59:00,
2013-02-18 14:14:00,55.2,48.1,29.87,South,181,4.6,19.5,77,0.04,,,0.04,VWS V14.01,2013-02-18 20:14:00,
2013-02-18 14:29:00,54.8,48.4,29.86,SSE,166,2.3,16.1,79,0.03,,,0.05,VWS V14.01,2013-02-18 20:29:00,
2013-02-18 14:44:00,54.3,48.6,29.86,East,84,6.9,17.2,81,0.04,,,0.06,VWS V14.01,2013-02-18 20:44:00,
2013-02-18 14:59:00,54.7,48.3,29.85,South,191,6.9,14.9,79,0.04,,,0.06,VWS V14.01,2013-02-18 20:59:00,
2013-02-18 15:14:00,55.6,48.2,29.84,South,184,9.2,16.1,76,0.03,,,0.06,VWS V14.01,2013-02-18 21:14:00,
2013-02-18 15:29:00,56.4,48.6,29.85,South,181,8.1,18.4,75,0.02,,,0.06,VWS V14.01,2013-02-18 21:29:00,
2013-02-18 15:44:00,55.8,49.0,29.84,SW,214,8.1,20.7,78,0.04,,,0.09,VWS V14.01,2013-02-18 21:44:00,
2013-02-18 15:59:00,55.3,49.2,29.83,SSE,158,13.8,14.9,80,0.03,,,0.09,VWS V14.01,2013-02-18 21:59:00,
2013-02-18 16:14:00,55.2,49.2,29.82,East,98,11.5,18.4,80,0.03,,,0.09,VWS V14.01,2013-02-18 22:14:00,
2013-02-18 16:29:00,55.7,49.0,29.80,SSE,162,2.3,25.3,78,0.03,,,0.09,VWS V14.01,2013-02-18 22:29:00,
2013-02-18 16:44:00,55.6,48.9,29.79,SE,146,4.6,16.1,78,0.03,,,0.09,VWS V14.01,2013-02-18 22:44:00,
2013-02-18 16:59:00,55.3,49.2,29.77,SSE,153,2.3,13.8,80,0.00,,,0.09,VWS V14.01,2013-02-18 22:59:00,
2013-02-18 17:14:00,55.5,49.4,29.78,South,188,5.8,14.9,80,0.01,,,0.10,VWS V14.01,2013-02-18 23:14:00,
2013-02-18 17:29:00,54.7,50.0,29.78,ESE,121,3.4,18.4,84,0.03,,,0.12,VWS V14.01,2013-02-18 23:29:00,
2013-02-18 17:44:00,53.8,50.3,29.80,SE,131,3.4,12.6,88,0.10,,,0.19,VWS V14.01,2013-02-18 23:44:00,
2013-02-18 17:59:00,53.2,50.3,29.78,ESE,109,4.6,10.3,90,0.15,,,0.24,VWS V14.01,2013-02-18 23:59:00,
2013-02-18 18:14:00,53.3,50.5,29.78,ESE,121,3.4,10.3,90,0.17,,,0.26,VWS V14.01,2013-02-19 00:14:00,
2013-02-18 18:29:00,53.2,50.7,29.80,South,183,0.0,4.6,91,0.23,,,0.33,VWS V14.01,2013-02-19 00:29:00,
2013-02-18 18:44:00,53.3,51.0,29.82,NW,319,2.3,8.1,92,0.32,,,0.44,VWS V14.01,2013-02-19 00:44:00,
2013-02-18 18:59:00,53.0,51.0,29.82,South,183,0.0,3.4,93,0.37,,,0.56,VWS V14.01,2013-02-19 00:59:00,
2013-02-18 19:14:00,53.3,51.6,29.81,South,183,3.4,9.2,94,0.40,,,0.64,VWS V14.01,2013-02-19 01:14:00,
2013-02-18 19:29:00,53.5,51.5,29.78,South,190,6.9,11.5,93,0.40,,,0.66,VWS V14.01,2013-02-19 01:29:00,
2013-02-18 19:44:00,54.4,51.5,29.78,SW,214,4.6,19.5,90,0.33,,,0.66,VWS V14.01,2013-02-19 01:44:00,
2013-02-18 19:59:00,54.9,51.7,29.83,SW,228,4.6,14.9,89,0.24,,,0.68,VWS V14.01,2013-02-19 01:59:00,
2013-02-18 20:14:00,52.4,49.3,29.88,WNW,290,6.9,14.9,89,0.42,,,0.98,VWS V14.01,2013-02-19 02:14:00,
2013-02-18 20:29:00,51.1,48.9,29.87,South,191,5.8,14.9,92,0.50,,,1.14,VWS V14.01,2013-02-19 02:29:00,
2013-02-18 20:44:00,51.1,49.2,29.85,South,188,3.4,8.1,93,0.59,,,1.25,VWS V14.01,2013-02-19 02:44:00,
2013-02-18 20:59:00,51.9,49.7,29.84,SE,144,3.4,9.2,92,0.63,,,1.29,VWS V14.01,2013-02-19 02:59:00,
2013-02-18 21:29:00,52.5,50.5,29.84,SW,217,3.4,9.2,93,0.32,,,1.30,VWS V14.01,2013-02-19 03:29:00,
2013-02-18 21:44:00,52.6,50.6,29.85,SSW,205,4.6,10.3,93,0.16,,,1.30,VWS V14.01,2013-02-19 03:44:00,
2013-02-18 22:14:00,52.5,50.5,29.88,SW,218,2.3,8.1,93,0.01,,,1.30,VWS V14.01,2013-02-19 04:14:00,
2013-02-18 22:29:00,52.5,50.5,29.89,NNW,345,1.1,5.8,93,0.00,,,1.30,VWS V14.01,2013-02-19 04:29:00,
2013-02-18 22:44:00,52.7,50.7,29.90,South,188,3.4,8.1,93,0.00,,,1.30,VWS V14.01,2013-02-19 04:44:00,
2013-02-18 22:59:00,51.1,45.2,29.93,West,262,3.4,16.1,80,0.00,,,1.30,VWS V14.01,2013-02-19 04:59:00,
2013-02-18 23:14:00,48.5,43.0,29.94,WNW,295,3.4,14.9,81,0.00,,,1.30,VWS V14.01,2013-02-19 05:14:00,
2013-02-18 23:29:00,47.6,42.4,29.95,NNW,332,1.1,8.1,82,0.00,,,1.30,VWS V14.01,2013-02-19 05:29:00,
2013-02-18 23:44:00,46.7,41.5,29.96,North,351,1.1,17.2,82,0.00,,,1.30,VWS V14.01,2013-02-19 05:44:00,
2013-02-18 23:59:00,45.8,40.9,29.97,North,360,2.3,6.9,83,0.00,,,0.00,VWS V14.01,2013-02-19 05:59:00,